Simultaneous Nadir Overpasses (SNOs) Predictions

Prediction of SNOs between GOES-16 and LANDSAT-8 Satellite Orbit:

Table of predicted SNOs for the next 14.0 days since TLE Epoch: 3/11/2023
Index Date Time (GOES-16) GOES-16 Lat,Lon LANDSAT-8 Lat,Lon Distance(km) Time Diff (sec)
1 03/11/2023 03:18:25 -0.06, -75.19 0.00, -76.19 111.46 80
2 03/13/2023 03:03:29 -0.05, -75.20 0.35, -73.18 229.12 80
3 03/13/2023 15:27:24 0.06, -75.22 0.71, -78.35 355.62 80
4 03/15/2023 15:15:13 0.05, -75.23 0.09, -75.39 18.88 80
5 03/17/2023 15:00:21 0.05, -75.24 -0.55, -72.44 318.39 80
6 03/18/2023 03:24:24 -0.05, -75.23 -0.55, -77.63 272.88 80
7 03/20/2023 03:09:31 -0.05, -75.25 0.06, -74.67 65.68 80
8 03/22/2023 02:57:19 -0.05, -75.28 0.69, -71.71 405.34 80
9 03/22/2023 15:18:33 0.05, -75.30 0.41, -76.87 178.71 80
10 03/24/2023 15:09:00 0.05, -75.34 -0.25, -73.91 162.02 80
